Flag for Switzerland Weather past 2 weeks in Wädenswil, Zurich, Switzerland

Now
64 °F

Mild.


Feels Like: 64 °F
Forecast: 48 / 64 °F
Wind: 5 mph from West

Location: Zurich Town / Ville.

Current Time: Sep 4, 2015 at 2:25:13 PM

Latest Report: Sep 4, 2015 at 1:00 PM


Visibility: N/A

Pressure: 29.99 "Hg

Humidity: 52%

Dew point: 46 °F

Location of WädenswilLocation

Historic Weather in Wädenswil — Graph

°F

Wädenswil temperature yesterday

Maximum temperature yesterday: 64 °F (at 4:00 PM)
Minimum temperature yesterday: 56 °F (at 11:00 PM)
Average temperature yesterday: 59 °F

Past Weeks' High & Low Weather Summary

 TemperatureHumidityPressure
High89 °F (Aug 30, 4:00 PM)98% (Aug 24, 2:00 AM)30.26 "Hg (Aug 24, 2:00 AM)
Low53 °F (Sep 4, 7:00 AM)23% (Aug 30, 3:00 PM)29.70 "Hg (Aug 24, 2:00 PM)
Average67 °F68%30.00 "Hg
* Reported Aug 20 1:00 PM — Sep 4 1:00 PM, Wädenswil, Weather by CustomWeather, © 2015

Note: Actual official high and low records may vary slightly from our data, if they occured in-between our weather recording intervals... More about our weather records

Advertising

Wädenswil weather history for previous 24 hours

 ConditionsComfort  
Time TempWeatherWind HumidityBarometerVisibility
1:00 PM
Fri, Sep 4
64 °FMild.5 mph52%29.99 "HgN/A
12:00 PM64 °FMild.5 mph61%30.00 "HgN/A
11:00 AM61 °FCool.2 mph74%30.02 "HgN/A
10:00 AM59 °FCool.2 mph85%30.02 "HgN/A
9:00 AM56 °FCool.2 mph89%30.03 "HgN/A
8:00 AM54 °FCool.2 mph93%30.03 "HgN/A
7:00 AM53 °FCool.2 mph94%30.03 "HgN/A
6:00 AM53 °FCool.3 mph93%30.03 "HgN/A
5:00 AM54 °FCool.2 mph95%30.03 "HgN/A
4:00 AM55 °FCool.1 mph93%30.03 "HgN/A
3:00 AM56 °FCool.5 mph92%30.03 "HgN/A
2:00 AM56 °FCool.2 mph87%30.03 "HgN/A
1:00 AM55 °FCool.2 mph88%30.03 "HgN/A
12:00 AM56 °FCool.2 mph89%30.02 "HgN/A
11:00 PM
Thu, Sep 3
56 °FCool.1 mph91%30.01 "HgN/A
10:00 PM56 °FCool.2 mph88%30.00 "HgN/A
9:00 PM57 °FCool.5 mph92%29.99 "HgN/A
8:00 PM58 °FOvercast.3 mph95%29.98 "HgN/A
7:00 PM57 °FCool.2 mph92%29.97 "HgN/A
6:00 PM62 °FCool.3 mph68%29.94 "HgN/A
5:00 PM63 °FMild.3 mph71%29.94 "HgN/A
4:00 PM64 °FMild.3 mph64%29.93 "HgN/A
3:00 PM64 °FMild.5 mph62%29.95 "HgN/A
2:00 PM62 °FOvercast.5 mph68%29.96 "HgN/A
Weather by CustomWeather, © 2015

See weather overviewHow to use our weather pages